Weather History for Falls City, NE

Change the Weather History Date:

Saturday, July 6, 2013

  Actual Average Record
Temperature  
Mean Temperature 76 °F -  
Max Temperature 89 °F 88 °F 102 °F (1954)
Min Temperature 64 °F 63 °F 52 °F (1967)
Cooling Degree Days 10    
Growing Degree Days 26 (Base 50)    
Moisture  
Dew Point 64 °F    
Average Humidity 66    
Maximum Humidity 87    
Minimum Humidity 48    
Precipitation  
Precipitation 0.01 in - - ()
Sea Level Pressure  
Sea Level Pressure 29.86 in    
Wind  
Wind Speed 9 mph (SSE)    
Max Wind Speed 16 mph    
Max Gust Speed 25 mph    
Visibility 10 miles    
Events Rain    
Averages and records for this station are not official NWS values.
T = Trace of Precipitation, MM = Missing Value Source: NWS Daily Summary

Daily Weather History Graph

Daily Weather History Graph

Search for Another Location

Airport:

Trip Planner

Search our weather history database for the weather conditions in past years. The results will help you decide how hot, cold, wet, or windy it might be!

Date:

Astronomy

Jul. 06, 2013 Rise Set
Actual Time 5:59 AM CDT 8:54 PM CDT
Civil Twilight 5:27 AM CDT 9:26 PM CDT
Nautical Twilight 4:46 AM CDT 10:07 PM CDT
Astronomical Twilight 3:58 AM CDT 10:54 PM CDT
Moon 4:46 AM CDT (7/6) 7:36 PM CDT (7/6)
Length of Visible Light 15h 59m
Length of Day
14h 54m
Waning Crescent, 2% of the Moon is Illuminated
Jul 6
Waning Crescent
Jul 8
New
Jul 15
First Quarter
Jul 22
Full
Jul 29
Last Quarter

Hourly Weather History & Observations

Time (CDT) Temp. Heat Index Dew Point Humidity Pressure Visibility Wind Dir Wind Speed Gust Speed Precip Events Conditions
12:53 AM 69.1 °F - 62.1 °F 78% 29.88 in 10.0 mi SE 5.8 mph - N/A   Clear
1:53 AM 69.1 °F - 62.1 °F 78% 29.88 in 10.0 mi SSE 4.6 mph - N/A   Clear
2:53 AM 68.0 °F - 62.1 °F 81% 29.88 in 10.0 mi SE 4.6 mph - N/A   Clear
3:53 AM 66.9 °F - 61.0 °F 81% 29.88 in 10.0 mi SE 4.6 mph - N/A   Clear
4:53 AM 64.9 °F - 61.0 °F 87% 29.88 in 10.0 mi ESE 5.8 mph - N/A   Clear
5:53 AM 66.0 °F - 61.0 °F 84% 29.90 in 10.0 mi SE 4.6 mph - N/A   Scattered Clouds
6:53 AM 68.0 °F - 62.1 °F 81% 29.89 in 10.0 mi SE 8.1 mph - N/A   Partly Cloudy
7:53 AM 72.0 °F - 64.0 °F 76% 29.88 in 10.0 mi South 11.5 mph - 0.01 in Rain Light Rain
8:53 AM 78.1 °F - 64.9 °F 64% 29.89 in 10.0 mi South 12.7 mph - 0.00 in   Clear
9:53 AM 81.0 °F 82.5 °F 64.0 °F 56% 29.88 in 10.0 mi South 12.7 mph 20.7 mph N/A   Clear
10:53 AM 84.9 °F 86.6 °F 64.9 °F 51% 29.87 in 10.0 mi South 13.8 mph - N/A   Clear
11:53 AM 84.9 °F 86.6 °F 64.9 °F 51% 29.85 in 10.0 mi South 12.7 mph 25.3 mph N/A   Clear
12:53 PM 87.1 °F 88.9 °F 64.9 °F 48% 29.85 in 10.0 mi South 16.1 mph 21.9 mph N/A   Clear
1:53 PM 87.1 °F 89.2 °F 66.0 °F 49% 29.85 in 10.0 mi SSW 16.1 mph 24.2 mph N/A   Clear
2:53 PM 84.9 °F 86.1 °F 64.0 °F 49% 29.85 in 10.0 mi South 13.8 mph 25.3 mph N/A   Clear
3:53 PM 81.0 °F 82.7 °F 64.9 °F 58% 29.86 in 10.0 mi South 13.8 mph - N/A   Clear
4:53 PM 81.0 °F 83.0 °F 66.0 °F 60% 29.85 in 10.0 mi SSE 13.8 mph - N/A   Clear
5:53 PM 81.0 °F 82.7 °F 64.9 °F 58% 29.84 in 10.0 mi South 13.8 mph - N/A   Clear
6:53 PM 81.0 °F 83.0 °F 66.0 °F 60% 29.83 in 10.0 mi SSE 9.2 mph - N/A   Partly Cloudy
7:53 PM 80.1 °F 82.1 °F 66.0 °F 62% 29.82 in 10.0 mi SSE 10.4 mph - N/A   Scattered Clouds
8:53 PM 78.1 °F - 66.0 °F 66% 29.83 in 9.0 mi SSE 10.4 mph - N/A   Mostly Cloudy
10:53 PM 75.9 °F - 66.0 °F 71% 29.85 in 10.0 mi South 6.9 mph - N/A   Mostly Cloudy
11:53 PM 77.0 °F - 64.9 °F 66% 29.86 in 10.0 mi South 6.9 mph - N/A   Overcast